Location: Fort Wayne
(41.1310°N, 85.1290°W)
Time: 19:04:25
(UTC-04:00)

Gbstr 26 Del rocket - Visible Passes

Search period start: 22 October 2014 00:00
Search period end: 01 November 2014 00:00
Orbit: 493 x 1278 km, 51.8° (Epoch: 21 October)

Date Brightness Start Highest point End Pass type
(mag) Time Alt. Az. Time Alt. Az. Time Alt. Az.
22 Oct 3.1 20:31:50 10° WNW 20:35:42 65° SW 20:37:04 40° SSE visible
23 Oct 3.7 20:29:23 10° WNW 20:33:09 47° SW 20:35:14 26° SSE visible
24 Oct 4.3 20:27:00 10° WNW 20:30:34 34° SW 20:33:35 16° SSE visible
25 Oct 4.9 20:24:43 10° WNW 20:27:58 25° SW 20:31:36 10° S visible
26 Oct 5.4 20:22:36 10° W 20:25:21 18° SW 20:28:20 10° S visible
27 Oct 5.8 20:20:50 10° WSW 20:22:41 13° SW 20:24:39 10° SSW visible
